User: anonymous   Login
Location: Indian Springs
(36.5700°N, 115.6700°W)
Time: 19:56:54
(UTC-07:00)
Language:

Cosmos 2278 Rocket - Orbit

View from above orbital plane
View from above orbital plane
View from above satellite
View from above satellite

Ground track
Ground track

The orbit data is extracted from the following two-line orbital elements,

1 23088U 94023B   17293.42909478  .00000208  00000-0  13297-3 0  9999
2 23088  71.0018  19.1911 0005487 269.0391  91.0103 14.14657465213256
Epoch (UTC): 20 October 2017 10:17:53
Eccentricity: 0.0005487
inclination: 71.0018°
perigee height: 839 km
apogee height: 847 km
right ascension of ascending node: 19.1911°
argument of perigee: 269.0391°
revolutions per day: 14.14657465
mean anomaly at epoch: 91.0103°
orbit number at epoch: 21325

The dashed part of the orbit path shows where the satellite is in the earth's shadow,  

DLR